Flag for Iran Weather past 2 weeks in Mashhad, Iran

Now
55 °F

Passing clouds.


Feels Like: 51 °F
Forecast: 51 / 78 °F
Wind: 18 mph from Northwest

Location: Mashhad Airport


UV Index: 7 (High)

Visibility: N/A


Pressure: 30.09 "Hg

Humidity: 51%

Dew point: 37 °F

Location of MashhadLocation

Historic Weather in Mashhad

°F

Mashhad temperature yesterday

Maximum temperature yesterday: 73 °F (at 2:30 PM)
Minimum temperature yesterday: 57 °F (at 7:00 PM)
Average temperature yesterday: 63 °F

Past Weeks' High & Low Weather Summary

 TemperatureHumidityPressure
High84 °F (Apr 22, 5:00 PM)100% (Apr 10, 6:55 AM)30.27 "Hg (Apr 10, 6:55 AM)
Low46 °F (Apr 18, 5:30 AM)13% (Apr 20, 5:30 PM)29.80 "Hg (Apr 24, 2:55 AM)
Average63 °F49%30.06 "Hg
* Reported Apr 10 6:55 AM — Apr 25 7:00 AM, Mashhad, Weather by CustomWeather, © 2014

Note: Actual official high and low records may vary slightly from our data, if they occured in-between our weather recording intervals... More about our weather records

Advertising

Historic Weather Conditions — Data for Previous 24 hours

 ConditionsComfort  
Time TempWeatherWind HumidityBarometerVisibility
7:00 AM
Apr 25
55 °FPassing clouds.18 mph51%30.09 "HgN/A
6:30 AM54 °FPassing clouds.14 mph58%30.07 "HgN/A
6:00 AM52 °FClear.14 mph62%30.07 "Hg10 mi
5:30 AM54 °FClear.16 mph58%30.07 "Hg10 mi
4:30 AM54 °FClear.16 mph58%30.04 "Hg10 mi
4:00 AM54 °FClear.14 mph58%30.04 "Hg10 mi
3:30 AM54 °FClear.9 mph63%30.01 "Hg10 mi
3:00 AM54 °FClear.12 mph67%30.01 "Hg10 mi
2:30 AM54 °FClear.14 mph72%30.01 "Hg10 mi
2:00 AM55 °FClear.14 mph67%30.01 "Hg10 mi
1:30 AM55 °FClear.14 mph67%30.01 "Hg10 mi
1:00 AM55 °FPassing clouds.14 mph67%29.98 "HgN/A
12:30 AM55 °FPassing clouds.7 mph67%29.98 "HgN/A
12:00 AM57 °FPassing clouds.18 mph63%29.98 "HgN/A
11:30 PM
Apr 24
57 °FThundershowers. Passing clouds.14 mph67%29.98 "HgN/A
11:00 PM57 °FThundershowers. Passing clouds.9 mph67%29.95 "HgN/A
10:30 PM57 °FThundershowers. Passing clouds.12 mph67%29.95 "HgN/A
10:00 PM57 °FThundershowers. Passing clouds.14 mph72%29.95 "HgN/A
9:30 PM59 °FPartly cloudy.5 mph63%29.95 "HgN/A
9:00 PM59 °FThundershowers. Partly cloudy.7 mph59%29.95 "HgN/A
8:30 PM59 °FCloudy.9 mph68%29.98 "HgN/A
8:00 PM57 °FRain. Cloudy.12 mph67%29.95 "HgN/A
7:30 PM59 °FPartly sunny.7 mph72%29.92 "HgN/A
7:00 PM57 °FThunderstorms. Partly sunny.9 mph77%29.89 "HgN/A
6:30 PM59 °FThunderstorms. Partly sunny.9 mph82%29.92 "HgN/A
6:00 PM61 °FThunderstorms. Partly sunny.5 mph68%29.86 "HgN/A
5:30 PM61 °FThunderstorms. Partly sunny.21 mph68%29.89 "HgN/A
5:00 PM63 °FThunderstorms. Partly sunny.7 mph45%29.89 "HgN/A
4:30 PM68 °FThunderstorms. Partly sunny.18 mph46%29.86 "HgN/A
4:00 PM72 °FScattered clouds.16 mph38%29.83 "HgN/A
3:30 PM72 °FScattered clouds.21 mph36%29.83 "HgN/A
3:00 PM73 °FScattered clouds.14 mph36%29.83 "HgN/A
2:30 PM73 °FScattered clouds.7 mph38%29.86 "HgN/A
2:00 PM72 °FScattered clouds.12 mph41%29.86 "HgN/A
1:30 PM70 °FScattered clouds.12 mph46%29.86 "HgN/A
1:00 PM70 °FScattered clouds.9 mph43%29.86 "HgN/A
12:30 PM70 °FScattered clouds.9 mph46%29.86 "HgN/A
12:00 PM70 °FScattered clouds.7 mph50%29.86 "HgN/A
11:30 AM68 °FScattered clouds.9 mph53%29.86 "HgN/A
11:00 AM66 °FPartly sunny.14 mph56%29.86 "HgN/A
10:30 AM64 °FScattered clouds.18 mph60%29.89 "HgN/A
9:50 AM63 °FScattered clouds.16 mph64%29.89 "HgN/A
9:30 AM64 °FScattered clouds.21 mph60%29.86 "HgN/A
9:00 AM63 °FScattered clouds.16 mph64%29.86 "HgN/A
8:30 AM63 °FScattered clouds.14 mph64%29.86 "HgN/A
8:00 AM63 °FScattered clouds.12 mph73%29.86 "HgN/A
Weather by CustomWeather, © 2014

See weather overview